Regional Weather Roundup
Issued by NWS New Orleans/Baton Rouge, LA

Home | Current Version | Previous Version | Text Only | Print | Product List | Glossary On
Versions: 1 2 3 4 5 6 7 8 9 10 11 12 13 14 15 16 17 18 19 20 21 22 23 24 25 26 27 28 29 30 31 32 33 34 35 36 37 38 39 40 41 42 43 44 45 46 47 48 49 50
000
ASUS44 KLIX 201601
RWRLIX
NEW ORLEANS REGIONAL WEATHER ROUNDUP
NATIONAL WEATHER SERVICE NEW ORLEANS LA
1100 AM CDT SAT SEP 20 2014

NOTE: "FAIR" INDICATES FEW OR NO CLOUDS BELOW 12,000 FEET WITH NO
      SIGNIFICANT WEATHER AND/OR OBSTRUCTIONS TO VISIBILITY.
      SKY/WX - SKY CONDITION AND SIGNIFICANT WEATHER.
      TMP - AIR TEMPERATURE.     DP    - DEWPOINT TEMPERATURE.
      RH  - RELATIVE HUMIDITY.   PRES  - PRESSURE.
      HI  - HEAT INDEX.          WCI   - WIND CHILL INDEX.

*  THESE STATIONS ARE NOT NWS OR FAA STATIONS AND ARE NOT UNDER
   NWS QUALITY CONTROL.

LAZ038-040-048-061>063-065>067-069-201700-
SOUTHEAST LOUISIANA

CITY           SKY/WX    TMP DP  RH WIND       PRES   REMARKS
N.O. AUDUBON     N/A     86  73  65 MISG        N/A
N.O. INTL ARPT MOSUNNY   84  70  62 E15       30.00R
N.O. LAKEFRONT MOSUNNY   84  71  65 E16       30.00R
N.O. DOWNTOWN*   N/A     82  68  61 NE8G16    30.01R
SLIDELL        SUNNY     84  67  56 NE10      30.01R
BATON ROUGE    SUNNY     84  69  60 NE16G22   30.02R
BOOTHVILLE     MOSUNNY   84  73  69 E14       29.98R
BELLE CHASSE   PTSUNNY   85  72  65 NE15      29.99R
BOGALUSA*        N/A     84  67  58 E7        30.05R
GALLIANO*      NOT AVBL
NEW ROADS*       N/A     84  68  59 E9        30.02R
GONZALES*        N/A     83  71  66 NE12      30.00S
HAMMOND*       NOT AVBL
HOUMA*         PTSUNNY   84  59  42 NE14      29.98R
PORT FOURCHON* MOSUNNY   84  72  65 E16G23    29.99S

$$

MSZ070-080>082-201700-
SOUTHERN MISSISSIPPI

CITY           SKY/WX    TMP DP  RH WIND       PRES   REMARKS
MCCOMB         SUNNY     82  68  62 VRB3      30.05S
GULFPORT       SUNNY     83  68  60 E12       30.01S
BILOXI         SUNNY     85  69  59 E13       30.02R
PASCAGOULA     SUNNY     83  67  58 NE12G18   30.02S
STENNIS ARPT*  SUNNY     82  64  54 E9        30.01S

$$

COASTAL OBSERVATIONS
LAKE AND NEARSHORE STATIONS

STATION/POSITION TIME  TEMP    WIND        PRES    WAVE
                       AIR SEA DIR/SP/G            HT/PER
                 (UTC) (F)     (DEG/KT/KT) (MB)    (FT/S)
PASCAGOULA       1500   82      60/ 13/ 16 1015.9
WAVELAND YACHT   1500   81      70/ 11/ 14 1015.6
GRAND ISLE       1500   83 81   80/ 16/ 23 1015.2
SOUTHWEST PASS   1500   85 89   80/ 21/ 24 1014.7
NEW CANAL        1500   79 80   60/ 17/ 18 1016.0
SHELL BEACH      1500   80 77   60/ 19/ 23 1015.3

OFFSHORE STATIONS

STATION/POSITION TIME  TEMP    WIND        PRES    WAVE
                       AIR SEA DIR/SP/G            HT/PER
                 (UTC) (F)     (DEG/KT/KT) (MB)    (FT/S)
64 S DAUPHIN ISL 1523   80 84   80/ 19/ 23 1015.2    6/ 7

$$



USA.gov is the U.S. government's official web portal to all federal, state and local government web resources and services.